Flag for Malaysia Weather past 2 weeks in Kuala Lumpur, Malaysia

Now
77 °F

Strong thunderstorms. More clouds than sun.


Feels Like: 78 °F
Forecast: 75 / 77 °F
Wind: 9 mph from Southwest

Location: Sultan Abdul Aziz Shah-Subang

Current Time: Dec 21, 2014 at 5:33:34 PM

Latest Report: Dec 21, 2014 at 4:00 PM


Visibility: 0 mi

Pressure: 29.71 "Hg

Humidity: 100%

Dew point: 77 °F

Location of Kuala LumpurLocation

Historic Weather in Kuala Lumpur — Graph

°F

Kuala Lumpur temperature yesterday

Maximum temperature yesterday: 90 °F (at 1:00 PM)
Minimum temperature yesterday: 79 °F (at 1:00 AM)
Average temperature yesterday: 81 °F

Past Weeks' High & Low Weather Summary

 TemperatureHumidityPressure
High93 °F (Dec 9, 1:00 PM)100% (Dec 11, 8:00 AM)29.92 "Hg (Dec 11, 8:00 AM)
Low75 °F (Dec 10, 11:00 PM)53% (Dec 9, 1:00 PM)29.71 "Hg (Dec 21, 3:00 PM)
Average81 °F84%29.84 "Hg
* Reported Dec 6 4:00 PM — Dec 21 4:00 PM, Kuala Lumpur, Weather by CustomWeather, © 2014

Note: Actual official high and low records may vary slightly from our data, if they occured in-between our weather recording intervals... More about our weather records

Advertising

Kuala Lumpur weather history for previous 24 hours

 ConditionsComfort  
Time TempWeatherWind HumidityBarometerVisibility
4:00 PM
Dec 21
77 °FStrong thunderstorms. More clouds than sun.9 mph100%29.71 "Hg1 mi
3:00 PM88 °FBroken clouds.7 mph70%29.71 "Hg5 mi
2:00 PM88 °FPartly sunny.3 mph70%29.77 "HgN/A
1:00 PM88 °FBroken clouds.1 mph66%29.80 "HgN/A
12:00 PM88 °FBroken clouds.3 mph66%29.83 "HgN/A
11:00 AM86 °FBroken clouds.3 mph70%29.83 "HgN/A
10:00 AM82 °FPartly sunny.1 mph84%29.83 "Hg5 mi
9:00 AM81 °FPartly sunny.1 mph89%29.80 "Hg4 mi
8:00 AM77 °FPartly cloudy.No wind100%29.80 "Hg3 mi
7:00 AM77 °FPartly cloudy.1 mph94%29.77 "Hg2 mi
6:00 AM77 °FPassing clouds.No wind94%29.74 "Hg1 mi
5:00 AM77 °FPassing clouds.1 mph100%29.74 "Hg2 mi
4:00 AM79 °FPartly cloudy.1 mph94%29.77 "Hg2 mi
3:00 AM79 °FPartly cloudy.1 mph94%29.77 "Hg2 mi
2:00 AM79 °FPartly cloudy.No wind94%29.80 "Hg3 mi
1:00 AM79 °FPartly cloudy.1 mph94%29.83 "Hg3 mi
12:00 AM79 °FPartly cloudy.2 mph94%29.83 "Hg3 mi
11:00 PM
Dec 20
79 °FPartly cloudy.1 mph94%29.83 "Hg4 mi
10:00 PM79 °FPartly cloudy.1 mph94%29.83 "Hg4 mi
9:00 PM79 °FPartly cloudy.1 mph89%29.80 "Hg4 mi
8:00 PM79 °FBroken clouds.3 mph89%29.77 "Hg4 mi
7:00 PM79 °FBroken clouds.1 mph94%29.77 "Hg6 mi
6:00 PM79 °FBroken clouds.3 mph89%29.74 "HgN/A
5:00 PM81 °FLight rain. Broken clouds.5 mph84%29.74 "Hg6 mi
Weather by CustomWeather, © 2014

See weather overviewHow to use our weather pages